Regional Weather Roundup
Issued by NWS

Home | Current Version | Previous Version | Text Only | Print | Product List | Glossary Off
Versions: 1 2 3 4 5 6 7 8 9 10 11 12 13 14 15 16 17 18 19 20 21 22 23 24 25 26 27 28 29 30 31 32 33 34 35 36 37 38 39 40 41 42 43 44 45 46 47 48 49 50

000
ASUS43 KTOP 192308
RWRKS

WEATHER ROUNDUP FOR KANSAS
NATIONAL WEATHER SERVICE GOODLAND KS
600 PM CDT SAT AUG 19 2017

NOTE:  "FAIR" INDICATES FEW OR NO CLOUDS BELOW 12,000 FEET WITH NO
SIGNIFICANT WEATHER AND/OR OBSTRUCTIONS TO VISIBILITY.

KSZ001>006-013>018-027>032-041>047-200000-
NORTHWEST KANSAS

CITY           SKY/WX    TMP DP  RH WIND       PRES   REMARKS
GOODLAND       SUNNY     93  55  27 SW15      29.90F
HAYS           SUNNY     96  66  37 SE13      29.84F HX  99
HILL CITY      SUNNY    100  51  19 S13G20    29.84F HX  97
RUSSELL        SUNNY     97  57  26 SE16      29.84F HX  96
$$

KSZ061>065-074>080-084>089-200000-
SOUTHWEST KANSAS

CITY           SKY/WX    TMP DP  RH WIND       PRES   REMARKS
DODGE CITY     CLOUDY    96  53  23 S15       29.91F
ELKHART          N/A     85  65  51 S8          N/A
GARDEN CITY    MOSUNNY   91  63  39 S15       29.92F
GREAT BEND     SUNNY     96  66  37 S13       29.86F HX  99
LIBERAL        MOSUNNY   91  67  44 S12       29.95S
PRATT          MOSUNNY   95  58  28 S12       29.89S
$$

KSZ066>073-081>083-090>101-200000-
SOUTHEAST KANSAS

CITY           SKY/WX    TMP DP  RH WIND       PRES   REMARKS
CHANUTE        HVY RAIN  78  71  79 NW8       29.94R
COFFEYVILLE    CLOUDY    89  78  70 S5        29.89F HX 103
HUTCHINSON     SUNNY     96  65  35 SE9       29.86F HX  98
MEDICINE LODGE   N/A     97  66  36 S8        29.86F HX 100
NEWTON         SUNNY     91  75  59 S15       29.90F HX 101
PARSONS        CLOUDY    87  79  76 CALM      29.91S HX 101
WICHITA INTL   CLOUDY    92  58  31 SE15      29.88S
WICHITA JABRA  CLOUDY    90  71  53 S8        29.89F HX  96
WICHITA MCCONL SUNNY     88  61  40 S12       29.89F
WINFIELD       MOSUNNY   94  75  54 SE8       29.90S HX 105
$$

KSZ007>012-019>026-033>040-048>060-102>105-200000-
NORTHEAST KANSAS

CITY           SKY/WX    TMP DP  RH WIND       PRES   REMARKS
CONCORDIA      SUNNY     91  66  43 SE8       29.86F
EMPORIA        CLOUDY    88  70  55 SE10      29.90F
LAWRENCE       SUNNY     91  72  53 SE9       29.89F HX  98
MANHATTAN      SUNNY     92  74  55 S12       29.86F HX 101
MARYSVILLE     SUNNY     93  66  40 S9        29.88S HX  96
OLATHE IND     SUNNY     89  70  53 S8        29.92F
OLATHE EXE     SUNNY     87  71  58 S9        29.92F
SALINA         SUNNY    100  63  29 SE15G21   29.86F HX 102
TOPEKA BILLARD SUNNY     91  73  55 SE9       29.88F HX  99
TOPEKA FORBES  SUNNY     92  72  51 SE12      29.89F HX  99
$$




USA.gov is the U.S. government's official web portal to all federal, state and local government web resources and services.